EN

Hourly Weather Kantelyna

Today, 26 November, Thursday

Time Temperature Precipitation Wind Pressure Humidity
00:00 +3°C° 0 mm 2 mps 745 mmHg 81%
01:00 +2°C° 0 mm 2 mps 746 mmHg 83%
02:00 +3°C° 0 mm 1 mps 746 mmHg 86%
03:00 +3°C° 0 mm 1 mps 746 mmHg 87%
04:00 +2°C° 0 mm 1 mps 746 mmHg 88%
05:00 +2°C° 0 mm 1 mps 745 mmHg 88%
06:00 +2°C° 0 mm 1 mps 746 mmHg 88%
07:00 +2°C° 0 mm 1 mps 746 mmHg 88%
08:00 +2°C° 0 mm 1 mps 746 mmHg 88%
09:00 +3°C° 0 mm 1 mps 746 mmHg 83%
10:00 +4°C° 0 mm 1 mps 746 mmHg 78%
11:00 +6°C° 0 mm 1 mps 746 mmHg 73%
12:00 +5°C° 0 mm 2 mps 745 mmHg 70%
13:00 +6°C° 0 mm 2 mps 745 mmHg 68%
14:00 +7°C° 0 mm 3 mps 745 mmHg 66%
15:00 +4°C° 0 mm 3 mps 745 mmHg 70%
16:00 +3°C° 0 mm 3 mps 744 mmHg 74%
17:00 +2°C° 0 mm 3 mps 744 mmHg 78%
18:00 +2°C° 0 mm 3 mps 744 mmHg 77%
19:00 +1°C° 0 mm 3 mps 744 mmHg 77%
20:00 +1°C° 0 mm 3 mps 744 mmHg 77%
21:00 0°C° 0 mm 3 mps 744 mmHg 75%
22:00 0°C° 0 mm 3 mps 743 mmHg 74%
23:00 0°C° 0 mm 3 mps 743 mmHg 73%

Tomorrow, 27 November, Friday

Time Temperature Precipitation Wind Pressure Humidity
00:00 -1°C° 0 mm 3 mps 743 mmHg 72%
01:00 -1°C° 0 mm 3 mps 743 mmHg 72%
02:00 -1°C° 0 mm 3 mps 743 mmHg 72%
03:00 -1°C° 0 mm 3 mps 743 mmHg 72%
04:00 -1°C° 0 mm 2 mps 742 mmHg 72%
05:00 -1°C° 0 mm 2 mps 742 mmHg 73%
06:00 -1°C° 0 mm 2 mps 742 mmHg 72%
07:00 -1°C° 0 mm 2 mps 742 mmHg 71%
08:00 -1°C° 0 mm 2 mps 742 mmHg 70%
09:00 0°C° 0 mm 3 mps 742 mmHg 65%
10:00 +1°C° 0 mm 3 mps 742 mmHg 59%
11:00 +3°C° 0 mm 3 mps 742 mmHg 54%
12:00 +3°C° 0 mm 3 mps 742 mmHg 54%
13:00 +4°C° 0 mm 3 mps 742 mmHg 55%
14:00 +4°C° 0 mm 3 mps 741 mmHg 55%
15:00 +3°C° 0 mm 3 mps 741 mmHg 60%
16:00 +2°C° 0 mm 3 mps 741 mmHg 65%
17:00 +1°C° 0 mm 3 mps 741 mmHg 70%
18:00 +1°C° 0 mm 3 mps 741 mmHg 74%
19:00 +2°C° 0 mm 2 mps 741 mmHg 79%
20:00 +2°C° 0 mm 2 mps 741 mmHg 83%
21:00 +2°C° 0 mm 2 mps 742 mmHg 86%
22:00 +2°C° 0 mm 2 mps 742 mmHg 89%
23:00 +2°C° 0 mm 2 mps 742 mmHg 92%

Day after tomorrow, 28 November, Saturday

Time Temperature Precipitation Wind Pressure Humidity
00:00 +2°C° 0 mm 2 mps 742 mmHg 93%
01:00 +2°C° 0 mm 2 mps 742 mmHg 93%
02:00 +2°C° 0 mm 2 mps 742 mmHg 93%
03:00 +3°C° 0.1 mm 1 mps 742 mmHg 93%
04:00 +3°C° 0.1 mm 1 mps 741 mmHg 93%
05:00 +3°C° 0.1 mm 1 mps 741 mmHg 93%
06:00 +3°C° 0 mm 1 mps 741 mmHg 93%
07:00 +2°C° 0 mm 1 mps 741 mmHg 93%
08:00 +1°C° 0 mm 0 mps 741 mmHg 93%
09:00 +2°C° 0 mm 0 mps 741 mmHg 90%
10:00 +2°C° 0 mm 0 mps 741 mmHg 87%
11:00 +3°C° 0 mm 0 mps 741 mmHg 85%
12:00 +4°C° 0.1 mm 1 mps 741 mmHg 85%
13:00 +4°C° 0.1 mm 1 mps 741 mmHg 85%
14:00 +4°C° 0.1 mm 1 mps 741 mmHg 86%
15:00 +4°C° 0.3 mm 1 mps 741 mmHg 89%
16:00 +2°C° 0.3 mm 2 mps 740 mmHg 92%
17:00 +2°C° 0.3 mm 2 mps 740 mmHg 95%
18:00 +2°C° 0.3 mm 2 mps 740 mmHg 95%
19:00 +2°C° 0.3 mm 2 mps 740 mmHg 95%
20:00 +2°C° 0.3 mm 2 mps 740 mmHg 96%
21:00 +2°C° 0.3 mm 2 mps 740 mmHg 96%
22:00 +2°C° 0.3 mm 2 mps 740 mmHg 96%
23:00 +3°C° 0.3 mm 2 mps 740 mmHg 96%

29 November, Sunday

Time Temperature Precipitation Wind Pressure Humidity
00:00 +3°C° 0.4 mm 2 mps 740 mmHg 96%
01:00 +3°C° 0.4 mm 2 mps 739 mmHg 97%
02:00 +3°C° 0.4 mm 2 mps 739 mmHg 97%
03:00 +3°C° 0.3 mm 1 mps 739 mmHg 97%
04:00 +3°C° 0.3 mm 1 mps 739 mmHg 97%
05:00 +3°C° 0.3 mm 1 mps 739 mmHg 97%
06:00 +3°C° 0.2 mm 1 mps 739 mmHg 97%
07:00 +3°C° 0.2 mm 1 mps 739 mmHg 97%
08:00 +3°C° 0.2 mm 1 mps 739 mmHg 96%
09:00 +3°C° 0.1 mm 1 mps 739 mmHg 95%
10:00 +4°C° 0.1 mm 1 mps 739 mmHg 94%
11:00 +4°C° 0.1 mm 1 mps 740 mmHg 93%
12:00 +4°C° 0.1 mm 1 mps 740 mmHg 93%
13:00 +4°C° 0.1 mm 1 mps 740 mmHg 92%
14:00 +4°C° 0.1 mm 1 mps 740 mmHg 92%
15:00 +4°C° 0.1 mm 1 mps 740 mmHg 91%
16:00 +4°C° 0.1 mm 1 mps 740 mmHg 89%
17:00 +4°C° 0.1 mm 1 mps 741 mmHg 88%
18:00 +2°C° 0.1 mm 2 mps 741 mmHg 90%
19:00 +2°C° 0.1 mm 2 mps 741 mmHg 91%
20:00 +2°C° 0.1 mm 2 mps 742 mmHg 92%
21:00 +1°C° 0 mm 2 mps 742 mmHg 92%
22:00 +1°C° 0 mm 2 mps 743 mmHg 92%
23:00 +1°C° 0 mm 2 mps 743 mmHg 92%

30 November, Monday

Time Temperature Precipitation Wind Pressure Humidity
00:00 -1°C° 0 mm 2 mps 743 mmHg 91%
01:00 -1°C° 0 mm 2 mps 743 mmHg 90%
02:00 -1°C° 0 mm 2 mps 743 mmHg 89%
03:00 -1°C° 0 mm 2 mps 744 mmHg 89%
04:00 -1°C° 0 mm 2 mps 744 mmHg 88%
05:00 -1°C° 0 mm 2 mps 744 mmHg 88%
06:00 -1°C° 0 mm 2 mps 745 mmHg 88%
07:00 -1°C° 0 mm 2 mps 745 mmHg 88%
08:00 -1°C° 0 mm 2 mps 745 mmHg 88%
09:00 -1°C° 0 mm 3 mps 746 mmHg 85%
10:00 0°C° 0 mm 3 mps 746 mmHg 81%
11:00 0°C° 0 mm 3 mps 746 mmHg 78%
12:00 -1°C° 0.1 mm 4 mps 746 mmHg 82%
13:00 -1°C° 0.1 mm 4 mps 746 mmHg 85%
14:00 -1°C° 0.1 mm 4 mps 746 mmHg 88%
15:00 -1°C° 0.1 mm 4 mps 746 mmHg 90%
16:00 -1°C° 0.1 mm 4 mps 746 mmHg 91%
17:00 -1°C° 0.1 mm 4 mps 747 mmHg 92%
18:00 -1°C° 0.2 mm 4 mps 747 mmHg 93%
19:00 -1°C° 0.2 mm 4 mps 747 mmHg 95%
20:00 -1°C° 0.2 mm 4 mps 747 mmHg 96%
21:00 -1°C° 0.1 mm 4 mps 747 mmHg 96%
22:00 -1°C° 0.1 mm 4 mps 747 mmHg 96%
23:00 -1°C° 0.1 mm 5 mps 748 mmHg 96%

1 December, Tuesday

Time Temperature Precipitation Wind Pressure Humidity
00:00 -1°C° 0 mm 4 mps 748 mmHg 96%
01:00 -1°C° 0 mm 4 mps 747 mmHg 96%
02:00 -1°C° 0 mm 4 mps 747 mmHg 96%
03:00 -1°C° 0 mm 4 mps 747 mmHg 95%
04:00 -1°C° 0 mm 4 mps 747 mmHg 94%
05:00 -1°C° 0 mm 4 mps 747 mmHg 94%
06:00 -1°C° 0 mm 4 mps 747 mmHg 94%
07:00 0°C° 0 mm 4 mps 747 mmHg 94%
08:00 +1°C° 0 mm 3 mps 747 mmHg 93%
09:00 +1°C° 0 mm 3 mps 747 mmHg 92%
10:00 0°C° 0 mm 4 mps 748 mmHg 92%
11:00 0°C° 0 mm 4 mps 748 mmHg 91%
12:00 +1°C° 0 mm 4 mps 747 mmHg 90%
13:00 +1°C° 0 mm 4 mps 747 mmHg 89%
14:00 +1°C° 0 mm 4 mps 746 mmHg 88%
15:00 +1°C° 0 mm 4 mps 746 mmHg 89%
16:00 +1°C° 0 mm 4 mps 746 mmHg 89%
17:00 +1°C° 0 mm 4 mps 746 mmHg 90%
18:00 +1°C° 0 mm 4 mps 746 mmHg 90%
19:00 +2°C° 0 mm 3 mps 746 mmHg 89%
20:00 +2°C° 0 mm 3 mps 746 mmHg 89%
21:00 +1°C° 0 mm 3 mps 746 mmHg 90%
22:00 +2°C° 0 mm 2 mps 746 mmHg 91%
23:00 +1°C° 0 mm 2 mps 746 mmHg 91%
Show more

We Need Your Consent

Meteoprog and our Service Providers may store and access personal data such as cookies, device identifiers or other similar technologies on your device and process such data to personalise content and ads, as well as provide social media features and to analyse the traffic.

  • Store and/or access information on your device

    Cookies, device identifiers or other information can be stored or accessed on your device for the purposes indicated above.

  • Personalised ads and content, ad and content measurement, audience insights, and products development

    Ads and content can be personalised based on a profile. More data can be added to better personalise ads and content. Ad and content performance can be measured. Insights about the audience who saw the ads and content can be derived. Such data can be used to develop or improve user’s experience, systems and software.

By clicking ‘I Agree’ you will allow the use of indicated cookies, device identifiers, web beacons or other similar technologies. Your settings can be changed in the browser on your device.

For certain purposes, legitimate interests may be relied on, rather than consent. You can read more about this in our Privacy and Cookie Policy.